M0ZPG Weather Reports


Display with metric or nautical units.
time (UTC)temp
F
wind
direction
speed
MPH
gust
MPH
rain 1hr
in
rain 24hr
in
rain mn
in
humidity
%
barometer
mb
20260902184506 66 208 2.0 7.0 0.00 0.00 0.00 88 1016.2
20260902183603 66 174 2.0 7.0 0.00 0.00 0.00 88 1016.1
20260902182706 65 150 2.0 7.0 0.00 0.00 0.00 88 1016.3
20260902181804 65 153 2.0 6.0 0.00 0.00 0.00 88 1016.2
20260902181118 65 179 2.0 6.0 0.00 0.00 0.00 87 1016.1
20260902180005 65 142 2.0 9.0 0.00 0.00 0.00 87 1016.3
20260902175403 65 143 2.0 7.0 0.00 0.00 0.00 86 1016.3
20260902174503 65 169 2.0 6.0 0.00 0.00 0.00 86 1016.4
20260902173603 66 162 2.0 7.0 0.00 0.00 0.00 85 1016.5
20260902172705 66 167 3.0 8.0 0.00 0.00 0.00 85 1016.5
20260902172015 66 162 2.0 8.0 0.00 0.00 0.00 84 1016.5
20260902170905 66 160 3.0 9.0 0.00 0.00 0.00 82 1016.4
20260902170005 66 160 2.0 8.0 0.00 0.00 0.00 81 1016.5
20260902165403 66 165 4.0 13.0 0.00 0.00 0.00 81 1016.5
20260902164505 67 152 4.0 12.0 0.00 0.00 0.00 80 1016.7
20260902163605 67 151 3.0 10.0 0.00 0.00 0.00 78 1016.8
20260902162705 68 204 3.0 13.0 0.00 0.00 0.00 77 1016.9
20260902162016 68 201 3.0 13.0 0.00 0.00 0.00 76 1016.9
20260902160903 68 157 4.0 11.0 0.00 0.00 0.00 75 1016.9
20260902160007 68 192 3.0 12.0 0.00 0.00 0.00 73 1016.9
20260902155404 68 184 4.0 12.0 0.00 0.00 0.00 73 1017.1
20260902154507 69 150 4.0 10.0 0.00 0.00 0.00 71 1017.1
20260902153817 69 161 4.0 10.0 0.00 0.00 0.00 70 1017.0
20260902152705 70 223 3.0 10.0 0.00 0.00 0.00 69 1017.2
20260902151803 70 185 4.0 13.0 0.00 0.00 0.00 68 1017.2
20260902150903 69 157 3.0 8.0 0.00 0.00 0.00 69 1017.2
20260902150005 69 182 2.0 8.0 0.00 0.00 0.00 69 1017.3
20260902145405 69 214 2.0 8.0 0.00 0.00 0.00 69 1017.5
20260902144715 69 166 2.0 11.0 0.00 0.00 0.00 69 1017.6
20260902143818 69 207 3.0 9.0 0.00 0.00 0.00 69 1017.5
20260902142705 69 183 3.0 12.0 0.00 0.00 0.00 69 1017.7
20260902141805 69 203 2.0 7.0 0.00 0.00 0.00 69 1017.8
20260902140903 69 179 3.0 10.0 0.00 0.00 0.00 69 1017.8
20260902140005 68 212 3.0 9.0 0.00 0.00 0.00 69 1017.7
20260902135614 68 210 3.0 9.0 0.00 0.00 0.00 69 1017.9
20260902134505 68 177 3.0 12.0 0.00 0.00 0.00 68 1017.9
20260902133813 68 151 3.0 8.0 0.00 0.00 0.00 69 1018.0
20260902132704 68 255 3.0 11.0 0.00 0.00 0.00 69 1018.1
20260902132018 68 185 3.0 11.0 0.00 0.00 0.00 69 1018.1
20260902131115 68 158 3.0 10.0 0.00 0.00 0.00 70 1018.2
20260902130003 69 143 3.0 11.0 0.00 0.00 0.00 71 1018.0
20260902125405 69 153 3.0 11.0 0.00 0.00 0.00 72 1018.1
20260902124503 68 178 3.0 11.0 0.00 0.00 0.00 72 1018.2
20260902123603 68 183 4.0 14.0 0.00 0.00 0.00 73 1018.2
20260902122916 69 186 4.0 14.0 0.00 0.00 0.00 73 1018.3
20260902121805 69 190 3.0 8.0 0.00 0.00 0.00 72 1018.2
20260902120904 69 193 2.0 8.0 0.00 0.00 0.00 72 1018.2
20260902120004 68 179 2.0 5.0 0.00 0.00 0.00 76 1018.3
20260902115405 68 194 2.0 8.0 0.00 0.00 0.00 77 1018.4
20260902114505 68 180 2.0 9.0 0.00 0.00 0.00 78 1018.4
20260902113606 68 229 1.0 5.0 0.00 0.00 0.00 78 1018.5
20260902112705 67 181 1.0 7.0 0.00 0.00 0.00 80 1018.7
20260902111805 67 150 1.0 5.0 0.00 0.00 0.00 80 1018.9
20260902110905 66 156 1.0 5.0 0.00 0.00 0.00 81 1019.0
20260902110005 65 171 1.0 4.0 0.00 0.00 0.00 83 1019.1
20260902105405 65 248 1.0 6.0 0.00 0.00 0.00 84 1019.3
20260902104503 64 200 2.0 7.0 0.00 0.00 0.00 84 1019.5
20260902103605 65 171 2.0 8.0 0.00 0.00 0.00 85 1019.5
20260902102703 65 199 1.0 8.0 0.00 0.00 0.00 83 1019.5
20260902101806 66 169 1.0 5.0 0.00 0.00 0.00 82 1019.5
20260902101117 66 238 1.0 7.0 0.00 0.00 0.00 80 1019.6
20260902100005 66 210 1.0 4.0 0.00 0.00 0.00 80 1019.5
20260902095616 66 222 1.0 7.0 0.00 0.00 0.00 81 1019.5
20260902094506 66 209 1.0 6.0 0.00 0.00 0.00 80 1019.4
20260902093816 66 206 1.0 6.0 0.00 0.00 0.00 80 1019.4
20260902092703 66 225 1.0 3.0 0.00 0.00 0.00 81 1019.5
20260902091806 66 236 1.0 5.0 0.00 0.00 0.00 81 1019.7
20260902090905 66 193 1.0 6.0 0.00 0.00 0.00 79 1019.5
20260902090005 66 227 1.0 7.0 0.00 0.00 0.00 77 1019.5
20260902085404 66 240 1.0 7.0 0.00 0.00 0.00 77 1019.5
20260902084505 66 188 1.0 6.0 0.00 0.00 0.00 77 1019.4
20260902083603 66 147 1.0 4.0 0.00 0.00 0.00 77 1019.3
20260902082703 65 233 1.0 6.0 0.00 0.00 0.00 77 1019.2
20260902081805 65 262 1.0 8.0 0.00 0.00 0.00 79 1019.2
20260902080904 65 261 1.0 4.0 0.00 0.00 0.00 80 1019.1
20260902080008 64 234 1.0 4.0 0.00 0.00 0.00 81 1019.1
20260902075617 64 251 1.0 4.0 0.00 0.00 0.00 81 1019.1
20260902074504 64 234 1.0 7.0 0.00 0.00 0.00 82 1018.9
20260902073606 64 184 1.0 6.0 0.00 0.00 0.00 83 1018.8
20260902072705 64 204 1.0 9.0 0.00 0.00 0.00 83 1019.0
20260902071804 63 239 0.0 5.0 0.00 0.00 0.00 84 1019.0
20260902071114 63 197 0.0 5.0 0.00 0.00 0.00 84 1019.0
20260902070216 62 223 0.0 3.0 0.00 0.00 0.00 85 1018.8
20260902065405 62 213 0.0 2.0 0.00 0.00 0.00 84 1018.8
20260902064506 62 220 0.0 2.0 0.00 0.00 0.00 85 1018.7
20260902063603 61 222 0.0 2.0 0.00 0.00 0.00 85 1018.7
20260902062705 61 226 0.0 1.0 0.00 0.00 0.00 85 1018.8
20260902061805 60 226 0.0 2.0 0.00 0.00 0.00 85 1018.8
20260902060906 60 226 0.0 1.0 0.00 0.00 0.00 85 1018.8
20260902060005 60 0 0.0 0.0 0.00 0.00 0.00 85 1018.8
20260902055406 60 0 0.0 0.0 0.00 0.00 0.00 85 1018.6
20260902054503 60 226 0.0 1.0 0.00 0.00 0.00 84 1018.5
20260902053603 60 0 0.0 0.0 0.00 0.00 0.00 84 1018.5
20260902052916 60 226 0.0 1.0 0.00 0.00 0.00 84 1018.5
20260902052013 60 0 0.0 0.0 0.00 0.00 0.00 84 1018.5
20260902050904 60 226 0.0 1.0 0.00 0.00 0.00 84 1018.6
20260902050007 60 0 0.0 0.0 0.00 0.00 0.00 84 1018.6
20260902045405 60 226 0.0 1.0 0.00 0.00 0.00 84 1018.5
20260902044504 60 226 0.0 1.0 0.00 0.00 0.00 84 1018.7
20260902043603 60 0 0.0 0.0 0.00 0.00 0.00 83 1018.6
20260902042708 61 226 0.0 1.0 0.00 0.00 0.00 83 1018.6
20260902041805 61 0 0.0 0.0 0.00 0.00 0.00 83 1018.6
20260902040903 61 0 0.0 0.0 0.00 0.00 0.00 83 1018.7
20260902040006 61 0 0.0 0.0 0.00 0.00 0.00 83 1018.7
20260902035406 61 0 0.0 0.0 0.00 0.00 0.00 83 1018.6
20260902034503 61 0 0.0 0.0 0.00 0.00 0.00 83 1018.7
20260902033605 61 226 0.0 1.0 0.00 0.00 0.00 82 1018.7
20260902032705 61 226 0.0 1.0 0.00 0.00 0.00 82 1018.7
20260902031803 61 226 0.0 1.0 0.00 0.00 0.00 82 1018.5
20260902030903 61 226 0.0 1.0 0.00 0.00 0.00 81 1018.6
20260902030219 62 226 0.0 1.0 0.00 0.00 0.00 81 1018.7
20260902025615 62 226 0.0 1.0 0.00 0.00 0.00 81 1018.7
20260902024506 62 226 0.0 2.0 0.00 0.00 0.00 81 1018.7
20260902023815 62 227 0.0 1.0 0.00 0.00 0.00 81 1018.7
20260902022704 62 228 0.0 1.0 0.00 0.00 0.00 80 1018.8
20260902021805 62 228 0.0 2.0 0.00 0.00 0.00 80 1018.8
20260902020906 62 228 0.0 1.0 0.00 0.00 0.00 80 1018.8
20260902020215 62 230 0.0 2.0 0.00 0.00 0.00 79 1018.9
20260902015403 62 235 0.0 1.0 0.00 0.00 0.00 79 1018.9
20260902014505 62 235 0.0 1.0 0.00 0.00 0.00 79 1019.0
20260902013603 62 236 0.0 2.0 0.00 0.00 0.00 79 1019.1
20260902012918 62 262 0.0 2.0 0.00 0.00 0.00 79 1019.2
20260902011803 62 240 0.0 4.0 0.00 0.00 0.00 79 1019.1
20260902011118 62 208 0.0 4.0 0.00 0.00 0.00 79 1019.1
20260902010003 62 185 0.0 1.0 0.00 0.00 0.00 79 1019.2
20260902005617 62 185 0.0 1.0 0.00 0.00 0.00 79 1019.2
20260902004503 62 185 0.0 1.0 0.00 0.00 0.00 79 1019.3
20260902003605 62 185 0.0 1.0 0.00 0.00 0.00 79 1019.3
20260902002705 62 185 0.0 1.0 0.00 0.00 0.00 78 1019.3
20260902001804 62 185 0.0 1.0 0.00 0.00 0.00 78 1019.4
20260902000906 62 185 0.0 1.0 0.00 0.00 0.00 78 1019.3
20260902000004 62 185 0.0 2.0 0.00 0.00 0.00 77 1019.3
20260901235617 62 185 0.0 2.0 0.00 0.00 0.00 77 1019.5
20260901234503 62 185 0.0 1.0 0.00 0.00 0.00 77 1019.4
20260901233605 62 185 0.0 1.0 0.00 0.00 0.00 77 1019.5
20260901232703 62 184 0.0 2.0 0.00 0.00 0.00 76 1019.5
20260901231805 63 0 0.0 0.0 0.00 0.00 0.00 76 1019.5
20260901230906 63 184 0.0 1.0 0.00 0.00 0.00 75 1019.4
20260901230019 63 184 0.0 1.0 0.00 0.00 0.00 75 1019.5
20260901225403 63 184 0.0 1.0 0.00 0.00 0.00 75 1019.5
20260901224505 63 186 0.0 2.0 0.00 0.00 0.00 75 1019.5
20260901223603 63 185 0.0 3.0 0.00 0.00 0.00 74 1019.6
20260901222705 63 185 0.0 2.0 0.00 0.00 0.00 74 1019.7
20260901221803 63 185 0.0 2.0 0.00 0.00 0.00 74 1019.6
20260901220904 64 185 0.0 2.0 0.00 0.00 0.00 74 1019.7
20260901220005 64 184 0.0 1.0 0.00 0.00 0.00 73 1019.6
20260901215403 64 184 0.0 2.0 0.00 0.00 0.00 73 1019.6
20260901214716 64 240 0.0 6.0 0.00 0.00 0.00 73 1019.6
20260901213604 64 215 1.0 5.0 0.00 0.00 0.00 73 1019.7
20260901212705 64 167 0.0 3.0 0.00 0.00 0.00 73 1019.5
20260901211803 64 160 0.0 4.0 0.00 0.00 0.00 73 1019.5
20260901210903 64 188 1.0 6.0 0.00 0.00 0.00 72 1019.5
20260901210004 64 166 0.0 4.0 0.00 0.00 0.00 72 1019.5
20260901205405 64 197 0.0 3.0 0.00 0.00 0.00 72 1019.5
20260901204717 64 247 0.0 4.0 0.00 0.00 0.00 72 1019.5
20260901203603 65 267 0.0 2.0 0.00 0.00 0.00 72 1019.6
20260901202703 65 256 1.0 4.0 0.00 0.00 0.00 71 1019.4
20260901201808 65 249 1.0 6.0 0.00 0.00 0.00 71 1019.3
20260901200905 65 223 1.0 5.0 0.00 0.00 0.00 71 1019.2
20260901200003 66 230 1.0 6.0 0.00 0.00 0.00 71 1019.1
20260901195405 66 178 1.0 6.0 0.00 0.00 0.00 71 1019.0
20260901194506 66 222 2.0 7.0 0.00 0.00 0.00 70 1018.9
20260901193603 66 201 1.0 5.0 0.00 0.00 0.00 70 1019.0
20260901192704 66 216 1.0 4.0 0.00 0.00 0.00 70 1019.0
20260901191806 66 221 1.0 4.0 0.00 0.00 0.00 69 1019.1
20260901190905 67 249 1.0 8.0 0.00 0.00 0.00 68 1019.1
20260901190003 67 212 2.0 6.0 0.00 0.00 0.00 68 1019.0
20260901185615 67 213 1.0 5.0 0.00 0.00 0.00 67 1019.0